Regional Weather Roundup
Issued by NWS Glasgow, MT

Home | Current Version | Previous Version | Text Only | Print | Product List | Glossary On
Versions: 1 2 3 4 5 6 7 8 9 10 11 12 13 14 15 16 17 18 19 20 21 22 23 24 25 26 27
000
ASUS45 KGGW 310415
RWRGGW
HOURLY REGIONAL WEATHER ROUNDUP FOR NORTHEAST MONTANA
NATIONAL WEATHER SERVICE GLASGOW MONTANA
1000 PM MDT TUE AUG 30 2016

NOTE: "FAIR" INDICATES FEW OR NO CLOUDS BELOW 12,000 FEET WITH NO
SIGNIFICANT WEATHER AND/OR OBSTRUCTIONS TO VISISBILITY.

NORTHEAST MONTANA


CITY           SKY/WX    TMP DP  RH WIND       PRES   REMARKS
GLASGOW        CLEAR     75  56  51 E17       30.03F
PLENTYWOOD       N/A     71  43  36 SE3         N/A
WOLF POINT     CLEAR     72  55  55 E9        30.07S
JORDAN           N/A     75  59  57 E9        30.02S
WINNETT          N/A     66  49  54 NE3         N/A
SIDNEY         CLEAR     73  53  49 E8        30.10S
GLENDIVE       CLEAR     74  60  61 E9        30.09
MALTA            N/A     68  57  68 E2          N/A
SCOBEY           N/A     72  49  44 E12G21    30.10F

FORT PECK REPORTS


CITY           SKY/WX    TMP DP  RH WIND       PRES   REMARKS
FORT PECK        N/A     75  58  55 E20         N/A
THE PINES        N/A     73  61  65 NE3         N/A

SOUTHEAST MONTANA


CITY           SKY/WX    TMP DP  RH WIND       PRES   REMARKS
BILLINGS       CLOUDY    77  42  28 N7        30.05S
MILES CITY     CLEAR     81  55  40 SE14G25   30.01S
BAKER          CLEAR     68  58  70 SE12      30.13R
LIVINGSTON     CLOUDY    76  40  27 E14       30.08S

CENTRAL MONTANA


CITY           SKY/WX    TMP DP  RH WIND       PRES   REMARKS
HAVRE          CLOUDY    72  54  53 E9        30.01F
LEWISTOWN      CLOUDY    68  50  52 E10       30.11S
GREAT FALLS    MOCLDY    76  48  37 E10       30.03R
CUT BANK       MOCLDY    73  46  38 SE9       30.04R
HELENA         MOCLDY    78  39  24 CALM      30.04R
BUTTE          CLOUDY    76  32  20 N7        30.13R
BOZEMAN        PTCLDY    78  35  21 E6        30.04S

WESTERN MONTANA


CITY           SKY/WX    TMP DP  RH WIND       PRES   REMARKS
MISSOULA       CLOUDY    79  38  22 E8        29.92F
KALISPELL      NOT AVBL

NORTH DAKOTA


CITY           SKY/WX    TMP DP  RH WIND       PRES   REMARKS
WILLISTON      CLOUDY    73  48  41 E7        30.14S
DICKINSON      CLOUDY    67  54  63 E10       30.13S
MINOT          CLEAR     61  50  67 E8        30.19R
BISMARCK       PTCLDY    67  53  61 E7        30.18S

SOUTHERN SASKATCHEWAN


CITY           SKY/WX    TMP DP  RH WIND       PRES   REMARKS
REGINA         CLEAR     66  50  55 E17       30.16S
ESTEVAN        CLEAR     63  48  59 E10       30.18R
SWIFT CURRENT  CLEAR     61  54  77 E13       30.11S





USA.gov is the U.S. government's official web portal to all federal, state and local government web resources and services.